Location: Marcé
(47.5801°N, 0.3280°W)
Time: 18:01:58
(UTC+01:00)

Tiros 1 - Pass Details

Date: 09 December 2021
Orbit: 629 x 664 km, 48.4° (Epoch: 26 January)

Event Time Altitude Azimuth Distance (km) Brightness Sun altitude
Rises 00:53:48 0° 278° (W) 2,955 - -65.2°
Reaches altitude 10° 00:57:55 10° 243° (WSW) 2,049 - -65.2°
Maximum altitude 00:59:12 11° 227° (SW) 1,984 - -65.2°
Drops below altitude 10° 01:00:28 10° 211° (SSW) 2,052 - -65.2°
Sets 01:04:37 0° 176° (S) 2,966 - -65.1°
